Location: Adamstown South Public School
(32.9318°S, 151.7012°E)
Time: 13:54:04
(UTC+00:00)

Cosmos 1943 Rocket - Pass Details

Date: 07 June 2020
Orbit: 810 x 845 km, 71.0° (Epoch: 04 July)

Event Time Altitude Azimuth Distance (km) Brightness Sun altitude
Rises 09:03:03 0° 209° (SSW) 3,362 5.5 -26.5°
Reaches altitude 10° 09:05:35 10° 216° (SW) 2,421 4.8 -27.0°
Maximum altitude 09:10:46 42° 285° (WNW) 1,151 3.3 -28.1°
Drops below altitude 10° 09:15:54 10° 354° (N) 2,395 4.7 -29.2°
Sets 09:18:25 0° 1° (N) 3,321 5.4 -29.7°
